This is the latest recevied weather packets stored in our database for station/object KI6SYE. If no packets are shown the sender has not sent any weather packets the latest 10 day(s).
| Time | Temp. | Humidity | Pressure | Rain* | Wind** | Luminosity | Snow |
|---|---|---|---|---|---|---|---|
| 1777935797 | 18.33° C | 75% | 1014.5 hPa | 0 mm | - | 353 W/m² | - |
| 1777935496 | 18.33° C | 72% | 1014.8 hPa | 0 mm | - | 655 W/m² | - |
| 1777935192 | 18.33° C | 70% | 1014.8 hPa | 0 mm | - | 408 W/m² | - |
| 1777934890 | 18.33° C | 71% | 1014.9 hPa | 0 mm | - | 384 W/m² | - |
| 1777934586 | 18.33° C | 71% | 1014.7 hPa | 0 mm | - | 466 W/m² | - |
| 1777934282 | 18.33° C | 72% | 1014.9 hPa | 0 mm | - | 484 W/m² | - |
| 1777933979 | 18.33° C | 72% | 1014.8 hPa | 0 mm | - | 643 W/m² | - |
| 1777933675 | 18.33° C | 74% | 1015.2 hPa | 0 mm | - | 497 W/m² | - |
| 1777933372 | 18.33° C | 73% | 1015 hPa | 0 mm | - | 439 W/m² | - |
| 1777933070 | 17.78° C | 76% | 1015 hPa | 0 mm | - | 425 W/m² | - |
| 1777932767 | 18.33° C | 76% | 1015.1 hPa | 0 mm | - | 637 W/m² | - |
| 1777932463 | 18.33° C | 76% | 1015.3 hPa | 0 mm | - | 440 W/m² | - |
| 1777932160 | 18.33° C | 76% | 1015.4 hPa | 0 mm | - | 448 W/m² | - |
| 1777931858 | 18.33° C | 75% | 1015.5 hPa | 0 mm | - | 496 W/m² | - |
| 1777931554 | 18.33° C | 74% | 1015.5 hPa | 0 mm | - | 500 W/m² | - |
| 1777931250 | 18.33° C | 76% | 1015.6 hPa | 0 mm | - | 757 W/m² | - |
| 1777930947 | 17.78° C | 76% | 1015.6 hPa | 0 mm | - | 685 W/m² | - |
| 1777930644 | 18.33° C | 75% | 1015.7 hPa | 0 mm | - | 501 W/m² | - |
| 1777930340 | 17.22° C | 78% | 1015.8 hPa | 0 mm | - | 466 W/m² | - |
| 1777930037 | 17.78° C | 78% | 1015.9 hPa | 0 mm | - | 337 W/m² | - |
| 1777929733 | 17.78° C | 80% | 1015.9 hPa | 0 mm | - | 285 W/m² | - |
| 1777929431 | 17.78° C | 77% | 1015.9 hPa | 0 mm | - | 497 W/m² | - |
| 1777929127 | 17.78° C | 78% | 1015.9 hPa | 0 mm | - | 421 W/m² | - |
| 1777928825 | 17.78° C | 77% | 1016.1 hPa | 0 mm | - | 429 W/m² | - |
| 1777928521 | 17.78° C | 76% | 1015.9 hPa | 0 mm | - | 456 W/m² | - |
* Rain latest hour (hover to see other rain measurements)
** Current wind speed in m/s (hover to see current wind gust speed)